Weather in Omsukchan

Russia / Magadan District     62°30′55″N   155°47′00″E
temp.,
°C
wind,
m/s
gust,
m/s
humid.,
%
clouds,
%
prec.,
mm/h
press.,
hPa
HPBL,
m
8 may, sat
sat823:00−12nw229513 0.4 101811
02:00−11wnw2297100 0.1 101814
05:00−8nw2296100 0.3 101826
08:00−6n349198 0.2 1018453
11:00−4n3476100 0.3 1017855
14:00−3nne457699 0.1 10171048
17:00−4nne357985 0.1 1017753
20:00−8n22928 0.0 101914
9 may, sun
sun923:00−12nw229518 0.0 102111
02:00−13wnw22968 0.0 10219
05:00−13wnw21948 0.0 10219
08:00−6nne11867 0.0 1018102
11:00−4ene107719 0.0 1017300
14:00−2e117892 0.0 1017399
17:00−2e117978 0.0 1017385
20:00−5ne11905 0.0 101810
10 may, mon
mon1023:00−9wnw11955 0.0 102010
02:00−10wnw119720 0.0 102110
05:00−10wnw119724 0.0 102110
08:00−5n11895 0.0 1019104
11:00−3nne11785 0.0 1018338
14:00−2nne11765 0.0 1018466
17:00−1ene11735 0.0 1018429
20:00−4wnw00865 0.0 101810
11 may, tue
tue1123:00−7wnw11915 0.0 102010
02:00−8wnw11925 0.0 102010
05:00−9wnw11937 0.0 102010
08:00−4n11835 0.0 101895
11:00−2ne11735 0.0 1018313
14:000n22705 0.0 1017519
17:00+1n23665 0.0 1016633
20:00−2n22776 0.0 101717
12 may, wed
wed1223:00−4nnw22855 0.0 101816
02:00−5nw228851 0.0 101915
05:00−6nw228962 0.0 101919
08:00−2n348159 0.0 1018328
11:00+1n466867 0.0 1017928
14:00+2n466262 0.0 10161103
17:00+2n456161 0.0 1015879
20:000nnw347235 0.0 101686